TimeGMT,TemperatureF,Dew PointF,Humidity,Sea Level PressureIn,VisibilityMPH,Wind Direction,Wind SpeedMPH,Gust SpeedMPH,PrecipitationIn,Events,Conditions,WindDirDegrees,DateUTC
12:58 AM,52.0,49.8,92,30.18,6.2,SW,10.4,-,N/A,,Overcast,220,2012-11-13 00:58:00
1:58 AM,52.2,49.6,91,30.18,6.2,SSW,10.4,-,N/A,,Scattered Clouds,210,2012-11-13 01:58:00
2:58 AM,52.7,50.0,91,30.19,6.2,SSW,10.4,-,N/A,,Mostly Cloudy,210,2012-11-13 02:58:00
3:58 AM,51.8,48.9,90,30.20,6.2,SSW,9.2,-,N/A,,Overcast,210,2012-11-13 03:58:00
4:58 AM,52.0,48.6,88,30.21,6.2,SSW,12.7,-,N/A,,Overcast,210,2012-11-13 04:58:00
5:58 AM,52.0,48.2,87,30.22,6.2,SSW,11.5,-,N/A,,Overcast,210,2012-11-13 05:58:00
6:58 AM,50.7,46.8,86,30.23,6.2,SSW,10.4,-,N/A,,Partly Cloudy,210,2012-11-13 06:58:00
7:58 AM,51.4,47.1,85,30.26,6.2,SSW,8.1,-,N/A,,Mostly Cloudy,210,2012-11-13 07:58:00
8:58 AM,52.7,47.7,83,30.27,6.2,SW,11.5,-,N/A,,Clear,220,2012-11-13 08:58:00
9:05 AM,53.6,48.2,82,30.27,6.2,SSW,12.7,-,N/A,,Light Drizzle,210,2012-11-13 09:05:00
9:14 AM,53.6,48.2,82,30.27,6.2,SSW,12.7,-,N/A,,Clear,210,2012-11-13 09:14:00
9:58 AM,55.2,48.2,77,30.28,6.2,SSW,13.8,-,0.00,,Clear,210,2012-11-13 09:58:00
10:52 AM,55.4,48.2,77,30.28,0.5,SSW,12.7,-,N/A,,Haze,210,2012-11-13 10:52:00
10:53 AM,57.2,48.2,72,30.28,0.2,SSW,13.8,-,N/A,,Haze,210,2012-11-13 10:53:00
10:58 AM,56.5,47.8,73,30.29,6.2,SW,13.8,-,N/A,,Clear,220,2012-11-13 10:58:00
11:58 AM,57.2,48.0,71,30.29,6.2,SSW,12.7,-,N/A,,Clear,200,2012-11-13 11:58:00
12:58 PM,59.0,46.9,64,30.28,6.2,SSW,10.4,-,N/A,,Clear,210,2012-11-13 12:58:00
1:58 PM,59.5,45.5,60,30.28,6.2,SSW,15.0,-,N/A,,Clear,210,2012-11-13 13:58:00
2:58 PM,59.0,45.9,62,30.28,6.2,SSW,9.2,-,N/A,,Clear,200,2012-11-13 14:58:00
3:58 PM,56.5,46.9,70,30.29,6.2,SSW,10.4,-,N/A,,Overcast,200,2012-11-13 15:58:00
4:58 PM,56.3,49.3,77,30.29,6.2,SSW,10.4,-,N/A,,Overcast,200,2012-11-13 16:58:00
5:35 PM,57.2,50.0,77,30.29,6.2,South,8.1,-,N/A,,Light Drizzle,180,2012-11-13 17:35:00
5:44 PM,55.4,50.0,82,30.29,6.2,South,9.2,-,N/A,,Overcast,170,2012-11-13 17:44:00
5:58 PM,55.6,48.9,78,30.30,6.2,South,6.9,-,0.00,,Overcast,170,2012-11-13 17:58:00
6:58 PM,54.9,49.8,83,30.31,6.2,South,6.9,-,N/A,,Overcast,180,2012-11-13 18:58:00
7:58 PM,55.0,50.4,84,30.32,6.2,South,8.1,-,N/A,,Overcast,190,2012-11-13 19:58:00
8:58 PM,54.7,50.0,84,30.33,6.2,South,6.9,-,N/A,,Overcast,190,2012-11-13 20:58:00
9:58 PM,54.1,50.5,88,30.34,6.2,South,6.9,-,N/A,,Overcast,190,2012-11-13 21:58:00
10:58 PM,53.6,50.7,90,30.34,6.2,South,8.1,-,N/A,,Overcast,170,2012-11-13 22:58:00
11:58 PM,53.6,50.7,90,30.34,6.2,South,9.2,-,N/A,,Overcast,170,2012-11-13 23:58:00